Weather History for KFMN - September, 2013

Change the Weather History Date:

Friday, September 13, 2013

  Actual Average Record
Temperature  
Mean Temperature 65 °F -  
Max Temperature 75 °F 79 °F 93 °F (1990)
Min Temperature 55 °F 49 °F 39 °F (2008)
Growing Degree Days 15 (Base 50)    
Moisture  
Dew Point 55 °F    
Average Humidity 74    
Maximum Humidity 94    
Minimum Humidity 41    
Precipitation  
Precipitation 0.00 in - - ()
Sea Level Pressure  
Sea Level Pressure 29.96 in    
Wind  
Wind Speed 6 mph (ESE)    
Max Wind Speed 15 mph    
Max Gust Speed 24 mph    
Visibility 10 miles    
Events      
Averages and records for this station are not official NWS values.
T = Trace of Precipitation, MM = Missing Value Source: NWS Daily Summary

Daily Weather History Graph

Daily Weather History Graph

Search for Another Location

Airport or City:

Trip Planner

Search our weather history database for the weather conditions in past years. The results will help you decide how hot, cold, wet, or windy it might be!

Date:

Astronomy

Sep. 13, 2013 Rise Set
Actual Time 6:53 AM MDT 7:22 PM MDT
Civil Twilight 6:27 AM MDT 7:48 PM MDT
Nautical Twilight 5:57 AM MDT 8:19 PM MDT
Astronomical Twilight 5:25 AM MDT 8:50 PM MDT
Moon 3:09 PM MDT (9/13) 12:33 AM MDT (9/13)
Length of Visible Light 13h 21m
Length of Day
12h 29m
Waxing Gibbous, 62% of the Moon is Illuminated
Sep 13
Waxing Gibbous
Sep 19
Full
Sep 26
Last Quarter
Oct 4
New
Oct 11
First Quarter

Hourly Weather History & Observations

Time (MDT) Temp. Dew Point Humidity Pressure Visibility Wind Dir Wind Speed Gust Speed Precip Events Conditions
12:53 AM 57.9 °F 55.0 °F 90% 30.02 in 10.0 mi East 8.1 mph - N/A   Mostly Cloudy
1:53 AM 57.0 °F 55.0 °F 93% 30.02 in 10.0 mi East 4.6 mph - N/A   Partly Cloudy
2:53 AM 57.0 °F 55.0 °F 93% 30.00 in 10.0 mi Calm Calm - N/A   Clear
3:53 AM 55.9 °F 54.0 °F 93% 29.99 in 10.0 mi East 4.6 mph - N/A   Clear
4:53 AM 55.9 °F 53.1 °F 90% 30.00 in 10.0 mi ESE 4.6 mph - N/A   Clear
5:30 AM 55.4 °F 53.6 °F 94% 30.12 in 10.0 mi Calm Calm - N/A   Mostly Cloudy
5:53 AM 55.9 °F 53.1 °F 90% 30.00 in 10.0 mi Calm Calm - N/A   Mostly Cloudy
6:42 AM 55.4 °F 53.6 °F 94% 30.11 in 10.0 mi ENE 4.6 mph - N/A   Partly Cloudy
6:53 AM 57.0 °F 54.0 °F 89% 30.00 in 10.0 mi East 4.6 mph - N/A   Partly Cloudy
7:53 AM 57.9 °F 55.0 °F 90% 30.01 in 10.0 mi East 4.6 mph - N/A   Clear
8:53 AM 61.0 °F 55.9 °F 83% 30.00 in 10.0 mi East 6.9 mph - N/A   Clear
9:53 AM 64.9 °F 57.9 °F 78% 29.99 in 10.0 mi East 5.8 mph - N/A   Clear
10:53 AM 66.9 °F 57.9 °F 73% 29.99 in 10.0 mi ESE 9.2 mph - N/A   Mostly Cloudy
11:04 AM 68.0 °F 57.2 °F 68% 30.12 in 10.0 mi East 8.1 mph - N/A   Overcast
11:53 AM 70.0 °F 59.0 °F 68% 29.97 in 10.0 mi ESE 10.4 mph - N/A   Scattered Clouds
12:53 PM 69.1 °F 55.9 °F 63% 29.95 in 10.0 mi SE 9.2 mph - 0.00 in   Overcast
1:53 PM 72.0 °F 57.0 °F 59% 29.91 in 10.0 mi East 8.1 mph - 0.00 in   Partly Cloudy
2:53 PM 73.9 °F 55.0 °F 52% 29.89 in 10.0 mi ESE 15.0 mph 23.0 mph N/A   Partly Cloudy
3:53 PM 72.0 °F 54.0 °F 53% 29.88 in 10.0 mi SE 15.0 mph 24.2 mph N/A   Clear
4:53 PM 70.0 °F 53.1 °F 55% 29.91 in 10.0 mi South 11.5 mph - N/A   Scattered Clouds
5:53 PM 68.0 °F 54.0 °F 61% 29.88 in 10.0 mi ESE 9.2 mph - 0.00 in   Scattered Clouds
6:53 PM 68.0 °F 52.0 °F 56% 29.87 in 10.0 mi SE 15.0 mph - N/A   Clear
7:53 PM 66.0 °F 53.1 °F 63% 29.89 in 10.0 mi SE 13.8 mph - N/A   Clear
8:53 PM 64.9 °F 54.0 °F 68% 29.91 in 10.0 mi ESE 11.5 mph - N/A   Clear
9:53 PM 62.1 °F 54.0 °F 75% 29.92 in 10.0 mi Calm Calm - N/A   Clear
10:53 PM 62.1 °F 54.0 °F 75% 29.91 in 10.0 mi East 6.9 mph - N/A   Clear
11:53 PM 61.0 °F 54.0 °F 78% 29.90 in 10.0 mi ENE 6.9 mph - N/A   Scattered Clouds